Location: Mount Cross
(36.6390°N, 79.4878°W)
Time: 11:54:33
(UTC+00:00)

S-56A Canister/Altair - Visible Passes

Search period start: 30 March 2023 00:00
Search period end: 09 April 2023 00:00
Orbit: 639 x 2493 km, 38.9° (Epoch: 29 March)

Date Brightness Start Highest point End Pass type
(mag) Time Alt. Az. Time Alt. Az. Time Alt. Az.
30 Mar 9.8 01:47:03 10° W 01:59:46 83° N 02:07:14 39° E visible
30 Mar 10.0 03:52:45 10° WNW 04:04:37 65° WSW 04:04:37 65° WSW visible
30 Mar 11.4 05:59:56 10° WNW 06:02:01 15° W 06:02:01 15° W visible
31 Mar 9.8 01:13:55 10° W 01:25:58 82° N 01:35:52 27° E visible
31 Mar 9.8 03:19:22 10° WNW 03:33:14 77° SSW 03:33:15 77° SSW visible
31 Mar 11.1 05:26:03 10° WNW 05:30:39 22° W 05:30:39 22° W visible
01 Apr 9.8 00:40:53 10° W 00:52:14 81° N 01:04:30 18° E visible
01 Apr 9.7 02:46:04 10° WNW 02:59:26 81° SSW 03:01:53 68° SE visible
01 Apr 10.8 04:52:19 10° WNW 04:59:17 31° W 04:59:17 31° W visible
02 Apr 9.7 00:07:55 10° W 00:18:34 81° N 00:33:10 10° E visible
02 Apr 9.8 02:12:51 10° WNW 02:25:40 84° SSW 02:30:33 53° ESE visible
02 Apr 10.5 04:18:42 10° WNW 04:27:57 41° WSW 04:27:57 41° WSW visible
03 Apr 9.7 01:39:44 10° WNW 01:51:55 87° SSW 01:59:14 39° ESE visible
03 Apr 10.2 03:45:14 10° WNW 03:56:38 51° SW 03:56:38 51° SW visible
04 Apr 9.7 01:06:43 10° WNW 01:18:13 89° NNE 01:27:57 27° ESE visible
04 Apr 10.0 03:11:53 10° WNW 03:24:45 57° SSW 03:25:20 57° SSW visible
04 Apr 11.3 05:19:49 10° W 05:22:44 16° W 05:22:44 16° W visible
05 Apr 9.7 00:33:44 10° WNW 00:44:35 87° NNE 00:56:40 18° ESE visible
05 Apr 9.9 02:38:37 10° WNW 02:51:06 61° SSW 02:54:05 54° S visible
05 Apr 11.1 04:45:46 10° W 04:51:28 22° WSW 04:51:28 22° WSW visible
06 Apr 9.6 00:00:51 10° W 00:10:59 84° N 00:25:25 10° E visible
06 Apr 9.9 02:05:28 10° WNW 02:17:27 65° SSW 02:22:51 44° SSE visible
06 Apr 10.8 04:11:57 10° W 04:20:15 28° WSW 04:20:15 28° WSW visible
07 Apr 9.8 01:32:24 10° WNW 01:43:49 69° SSW 01:51:41 33° SE visible
07 Apr 10.6 03:38:19 10° W 03:49:05 33° SW 03:49:05 33° SW visible
08 Apr 9.7 00:59:26 10° WNW 01:10:15 74° SSW 01:20:33 23° SE visible
08 Apr 10.5 03:04:52 10° W 03:16:05 37° SW 03:17:58 36° SSW visible
